Wind_Speed
25 26 26 25 26 25 25 26 27 27 27 28 30 31 31 32 33 33 34 34 33 33 34 35 36 36 37 37 37 38 38 38 38 39 39 39 39 39
24 25 25 25 25 25 25 25 26 26 28 29 29 30 31 32 33 33 34 33 33 33 34 35 36 36 37 37 38 38 39 39 39 39 40 40 40 40
22 22 23 24 24 24 24 24 25 26 28 29 30 30 31 31 32 32 33 34 34 34 34 34 34 34 35 36 37 38 39 40 40 40 41 41 41 41
21 22 22 23 23 23 24 24 25 26 27 27 29 30 30 30 31 32 32 33 33 34 34 34 34 34 34 35 36 37 39 40 41 41 42 42 42 42
22 22 21 22 22 22 23 23 23 24 25 25 26 27 28 29 29 30 31 32 32 33 34 34 34 34 35 35 35 37 38 40 41 42 43 43 43 43
22 21 20 21 21 22 22 22 22 22 23 23 24 25 26 26 27 29 30 31 31 32 33 33 34 34 35 37 37 38 38 39 40 41 43 44 44 43
20 20 19 20 20 21 22 22 22 22 22 22 23 23 24 25 25 27 28 29 30 30 31 32 33 34 34 35 35 37 38 38 39 40 41 42 42 42
18 17 18 19 20 21 21 22 22 21 20 20 21 22 23 23 24 26 27 28 28 29 29 31 32 33 33 34 35 35 36 37 38 39 40 41 41 40
17 17 18 19 20 20 20 21 21 21 20 20 20 20 20 21 22 24 26 27 27 27 28 29 30 31 32 33 34 34 35 36 37 38 39 39 40 40
17 18 19 20 20 20 21 21 20 20 20 19 19 20 20 20 21 23 24 25 27 27 27 28 30 30 30 31 33 33 34 35 36 36 37 37 38 39
18 19 19 19 19 20 20 19 19 19 20 19 19 20 20 21 21 22 23 24 25 26 27 27 27 29 29 30 30 31 33 34 35 35 36 37 38 38
18 19 19 19 19 19 19 18 18 18 19 19 19 19 20 21 21 22 23 24 24 24 25 25 26 27 29 30 30 32 33 34 35 36 36 37 38 39
19 19 19 19 19 18 17 17 17 17 18 18 18 18 19 20 21 21 21 21 21 22 24 25 25 26 27 28 29 30 32 33 33 34 35 37 38 38
19 20 20 19 19 18 18 17 17 17 17 17 17 18 18 18 19 19 20 20 20 21 22 23 24 25 25 26 27 29 30 31 31 32 33 34 35 36
18 19 19 19 19 18 18 17 17 17 17 16 17 18 18 19 19 19 19 19 20 20 20 22 23 24 24 25 26 27 28 29 30 31 32 34 35 35
18 18 19 19 19 19 19 19 18 18 18 17 18 18 19 19 19 19 19 19 19 20 21 22 23 24 24 25 26 27 28 29 30 31 31 31 32 34
17 18 18 19 19 19 19 19 19 19 18 18 18 18 18 18 19 19 20 20 20 20 21 22 23 23 24 25 26 27 28 29 30 31 31 31 31 32
17 18 18 19 19 20 20 19 19 19 19 19 19 19 19 18 19 20 20 20 20 21 21 22 23 24 25 26 26 27 27 28 29 30 31 31 32 33
18 18 18 19 20 21 20 20 20 20 20 20 19 19 19 19 19 20 20 20 21 21 22 23 23 24 24 25 26 27 27 27 28 28 30 31 31 32
18 19 19 20 20 21 21 21 21 21 21 20 20 19 19 20 20 20 20 21 21 22 22 22 23 23 23 24 24 25 27 27 28 29 29 30 30 31
19 19 19 19 20 21 22 22 22 22 22 21 21 20 20 20 20 20 21 21 22 22 22 22 22 23 23 23 24 24 25 27 27 28 29 29 30 31
18 19 20 20 21 22 22 22 22 23 23 22 22 21 21 21 21 21 20 21 22 22 22 21 21 22 23 23 23 24 25 26 26 27 27 28 29 30
19 20 21 21 22 22 22 22 23 23 24 23 23 22 21 21 21 21 21 21 21 22 22 22 21 21 22 22 22 23 24 24 25 26 26 27 28 29
Wind_Direction
281 281 282 281 281 279 277 276 272 269 266 264 263 263 261 259 259 258 255 254 255 255 256 256 255 253 252 251 250 248 247 245 245 244 244 244 245 246
282 282 283 282 282 281 278 277 273 270 267 265 264 262 260 259 258 257 258 256 256 256 257 256 256 254 252 251 249 249 248 247 245 245 245 245 245 246
289 287 285 283 283 282 280 278 276 272 270 268 267 265 262 259 257 257 257 256 257 257 258 257 256 255 253 253 251 250 249 248 247 246 246 245 246 247
293 293 290 288 288 282 281 279 277 274 273 271 268 266 264 260 258 257 257 256 257 258 258 257 256 254 253 252 252 250 249 247 247 248 247 246 246 248
293 291 292 293 293 288 286 284 281 279 277 273 271 268 264 262 260 258 259 259 258 259 258 257 255 254 253 251 251 251 250 249 249 248 247 246 247 248
294 293 294 294 293 291 291 289 285 283 280 275 271 269 267 264 264 261 262 262 261 260 259 257 255 254 253 253 252 251 250 249 248 249 248 247 248 248
298 296 296 296 296 293 293 291 289 286 283 278 274 272 270 266 265 263 263 263 260 259 259 257 255 255 255 254 253 252 252 251 250 249 248 247 247 248
306 304 303 299 299 295 295 294 293 290 286 282 277 272 271 268 267 264 264 263 261 260 259 258 256 255 255 254 253 251 251 251 251 250 248 248 247 247
312 311 309 305 303 300 298 296 293 290 288 285 281 279 274 272 271 267 267 265 262 261 259 258 258 257 256 256 253 251 250 249 249 249 249 249 249 248
316 316 315 311 307 305 303 299 296 293 292 288 280 279 279 276 274 271 269 267 265 264 263 261 258 256 256 255 253 252 252 252 250 250 249 249 249 249
320 319 318 316 313 313 310 305 301 297 295 293 286 281 280 278 277 275 273 271 268 265 264 263 261 257 256 255 253 253 253 253 252 252 250 249 249 250
322 322 321 320 319 318 314 309 306 303 297 292 289 285 283 282 281 278 276 273 268 266 265 264 263 261 259 259 258 256 255 254 254 252 251 249 249 250
326 327 327 325 323 321 317 313 310 307 304 299 294 289 286 285 284 282 280 277 274 270 268 268 266 264 263 262 261 260 258 257 256 255 254 254 253 251
330 330 330 327 326 324 320 318 317 314 309 305 301 297 294 292 289 289 287 284 281 278 275 272 271 268 267 267 266 263 262 261 259 257 257 257 255 252
333 334 334 333 331 329 326 323 321 319 315 309 306 304 301 297 295 294 290 288 285 283 279 275 273 272 270 268 266 264 264 262 260 259 258 257 255 252
336 336 337 337 337 336 331 326 323 322 319 314 310 308 305 300 298 297 296 293 290 287 283 280 277 274 272 270 268 267 266 264 262 261 260 259 257 255
338 338 337 337 338 337 335 330 327 324 320 315 313 312 309 305 303 301 298 295 292 290 286 283 281 279 277 274 272 269 266 265 264 262 260 259 260 259
341 342 341 340 341 340 338 334 331 328 324 320 316 314 311 309 307 305 303 299 296 293 290 287 285 284 281 278 275 273 269 266 265 264 263 262 261 260
344 343 343 343 342 340 340 337 334 332 328 323 319 315 313 311 310 308 306 305 304 300 297 293 289 286 283 281 278 276 273 270 268 267 265 263 261 260
347 346 344 343 343 343 342 342 339 335 332 328 324 319 316 315 314 311 309 307 307 305 302 297 292 289 287 284 281 279 276 273 271 269 267 264 262 262
349 348 346 345 344 343 342 342 341 339 336 334 332 328 324 320 317 314 311 309 308 308 306 301 296 292 291 288 286 284 282 279 275 272 269 266 264 263
351 350 348 346 344 343 342 342 342 342 340 337 333 330 327 324 322 318 315 312 311 311 310 307 301 297 294 292 289 287 284 282 278 274 272 269 267 265
352 350 347 346 344 342 341 342 342 342 341 339 337 333 330 326 324 322 321 319 317 316 314 311 306 301 298 295 293 291 288 285 282 279 276 274 272 269
Height
5715 5714 5713 5712 5711 5710 5709 5709 5709 5708 5709 5709 5709 5709 5709 5710 5711 5712 5713 5715 5716 5718 5719 5720 5722 5723 5725 5727 5729 5732 5735 5738 5741 5745 5748 5751 5754 5757
5708 5707 5706 5705 5704 5703 5702 5701 5700 5700 5700 5701 5700 5700 5700 5701 5701 5702 5704 5705 5707 5708 5709 5711 5712 5713 5715 5717 5719 5722 5725 5728 5732 5735 5738 5741 5744 5747
5701 5700 5699 5697 5696 5695 5694 5693 5692 5692 5691 5691 5691 5691 5691 5691 5692 5693 5694 5695 5696 5698 5700 5701 5702 5703 5705 5707 5709 5712 5715 5718 5722 5725 5728 5731 5734 5738
5696 5694 5693 5691 5689 5688 5686 5686 5684 5683 5682 5682 5681 5682 5682 5682 5682 5683 5684 5685 5686 5687 5689 5691 5692 5694 5695 5697 5699 5702 5705 5708 5711 5714 5718 5721 5724 5727
5689 5688 5686 5684 5683 5681 5680 5678 5677 5675 5674 5673 5672 5672 5672 5672 5673 5674 5674 5675 5676 5677 5678 5680 5682 5684 5686 5687 5690 5692 5695 5698 5701 5703 5706 5710 5713 5716
5683 5681 5680 5678 5676 5675 5673 5671 5669 5668 5666 5665 5664 5663 5663 5663 5664 5664 5665 5666 5666 5667 5668 5670 5672 5674 5676 5678 5680 5682 5684 5687 5689 5692 5695 5698 5701 5705
5677 5675 5673 5671 5670 5668 5666 5664 5662 5660 5658 5657 5656 5655 5655 5655 5655 5656 5656 5657 5657 5658 5659 5661 5662 5664 5665 5667 5669 5671 5674 5676 5678 5681 5684 5687 5690 5693
5671 5669 5667 5665 5663 5662 5659 5657 5655 5653 5651 5651 5649 5648 5648 5648 5648 5648 5648 5649 5649 5650 5650 5651 5653 5654 5656 5658 5659 5661 5663 5665 5668 5670 5673 5675 5678 5681
5666 5664 5662 5659 5657 5655 5653 5651 5649 5646 5645 5644 5643 5642 5642 5641 5641 5641 5640 5641 5641 5641 5642 5643 5644 5645 5646 5647 5649 5651 5653 5655 5657 5659 5661 5664 5667 5670
5662 5659 5657 5654 5652 5650 5648 5645 5643 5641 5639 5638 5637 5636 5635 5634 5634 5633 5633 5633 5633 5633 5633 5634 5635 5636 5637 5638 5639 5641 5642 5644 5646 5648 5651 5653 5656 5658
5658 5655 5653 5650 5647 5644 5642 5640 5638 5636 5634 5632 5631 5630 5629 5627 5627 5626 5626 5625 5625 5625 5625 5625 5626 5627 5627 5628 5629 5630 5632 5634 5636 5638 5640 5642 5645 5647
5655 5651 5649 5646 5643 5640 5637 5635 5633 5631 5629 5627 5625 5624 5623 5621 5620 5619 5618 5618 5617 5617 5617 5617 5617 5618 5619 5619 5620 5621 5622 5624 5625 5627 5629 5631 5633 5636
5651 5648 5645 5642 5638 5635 5632 5630 5628 5626 5623 5621 5620 5618 5617 5615 5614 5612 5611 5611 5610 5610 5609 5609 5609 5609 5610 5611 5611 5611 5612 5614 5615 5617 5618 5620 5622 5624
5647 5644 5641 5638 5635 5631 5628 5626 5623 5621 5619 5617 5615 5613 5611 5609 5608 5606 5605 5604 5603 5603 5602 5601 5601 5602 5602 5602 5602 5602 5603 5604 5605 5607 5608 5610 5611 5613
5644 5641 5637 5634 5631 5628 5625 5622 5619 5616 5614 5612 5609 5608 5606 5604 5602 5600 5599 5598 5597 5596 5595 5594 5594 5593 5593 5594 5594 5594 5594 5595 5596 5597 5598 5599 5601 5603
5641 5638 5635 5631 5628 5624 5621 5618 5615 5612 5609 5607 5604 5602 5600 5598 5596 5594 5593 5592 5590 5589 5588 5587 5586 5586 5585 5585 5585 5585 5585 5586 5586 5587 5588 5589 5590 5591
5639 5635 5632 5629 5625 5622 5618 5614 5611 5608 5605 5602 5600 5597 5595 5592 5590 5588 5587 5585 5584 5582 5581 5580 5578 5577 5577 5576 5576 5576 5576 5576 5576 5576 5577 5579 5580 5581
5636 5633 5629 5626 5622 5618 5615 5611 5607 5604 5601 5598 5595 5592 5590 5587 5585 5582 5580 5578 5577 5575 5573 5572 5570 5569 5569 5568 5567 5566 5566 5566 5566 5566 5567 5568 5569 5570
5634 5631 5627 5623 5620 5616 5612 5608 5604 5600 5596 5593 5590 5587 5584 5582 5579 5576 5574 5572 5570 5568 5565 5564 5562 5561 5560 5559 5558 5557 5556 5556 5556 5556 5557 5557 5558 5559
5632 5628 5625 5621 5617 5613 5609 5605 5601 5596 5592 5588 5585 5582 5579 5576 5573 5571 5568 5566 5563 5561 5558 5556 5554 5552 5551 5550 5549 5548 5547 5546 5546 5546 5546 5546 5547 5548
5630 5626 5622 5618 5615 5610 5606 5602 5597 5593 5589 5584 5581 5577 5574 5571 5568 5565 5562 5559 5556 5554 5551 5549 5547 5545 5543 5542 5540 5539 5537 5536 5536 5536 5536 5536 5536 5537
5628 5624 5620 5616 5612 5608 5603 5599 5594 5590 5585 5581 5577 5573 5569 5566 5562 5559 5556 5553 5550 5547 5544 5542 5539 5537 5535 5534 5532 5530 5529 5527 5526 5525 5525 5526 5526 5526
5626 5622 5618 5613 5609 5604 5600 5595 5591 5586 5582 5577 5573 5568 5564 5561 5557 5554 5550 5547 5544 5541 5538 5536 5533 5530 5528 5526 5524 5522 5520 5518 5517 5516 5516 5515 5515 5515